Location: Goll?ig?dem
(16.6773°N, 80.7332°E)
Time: 21:00:37
(UTC+00:00)

JB-3 - Pass Details

Date: 19 May 2025
Orbit: 493 x 544 km, 97.2° (Epoch: 18 June)

Event Time Altitude Azimuth Distance (km) Brightness Sun altitude
Rises 22:54:58 0° 171° (S) 2,694 7.7 -16.1°
Reaches altitude 10° 22:57:05 10° 172° (S) 1,800 6.8 -15.7°
Maximum altitude 23:00:59 81° 259° (W) 549 4.1 -14.8°
Drops below altitude 10° 23:04:51 10° 347° (NNW) 1,783 7.1 -14.0°
Sets 23:06:56 0° 348° (NNW) 2,666 8.0 -13.6°
